TimeCST,TemperatureF,Dew PointF,Humidity,Sea Level PressureIn,VisibilityMPH,Wind Direction,Wind SpeedMPH,Gust SpeedMPH,PrecipitationIn,Events,Conditions,WindDirDegrees,DateUTC
12:04 AM,71.6,69.8,94,30.07,10.0,SW,3.5,-,N/A,,Mostly Cloudy,220,2012-11-27 06:04:00
12:40 AM,69.8,69.8,100,30.07,10.0,WSW,3.5,-,N/A,Thunderstorm,Thunderstorm,240,2012-11-27 06:40:00
12:52 AM,70.0,70.0,100,30.07,10.0,Variable,3.5,-,N/A,,Overcast,0,2012-11-27 06:52:00
1:04 AM,66.2,60.8,83,30.06,10.0,North,23.0,31.1,N/A,Thunderstorm,Overcast,360,2012-11-27 07:04:00
1:15 AM,66.2,60.8,83,30.07,10.0,North,17.3,-,N/A,Thunderstorm,Overcast,350,2012-11-27 07:15:00
1:35 AM,64.4,60.8,88,30.07,10.0,North,16.1,-,N/A,,Overcast,10,2012-11-27 07:35:00
1:52 AM,64.0,62.1,93,30.08,10.0,North,11.5,-,0.03,Rain-Thunderstorm,Light Rain,360,2012-11-27 07:52:00
2:14 AM,64.4,64.4,100,30.06,2.5,North,10.4,-,0.36,Rain-Thunderstorm,Heavy Thunderstorms and Rain,360,2012-11-27 08:14:00
2:18 AM,64.4,64.4,100,30.06,3.0,North,8.1,-,0.36,Rain-Thunderstorm,Heavy Thunderstorms and Rain,350,2012-11-27 08:18:00
2:46 AM,64.4,62.6,94,30.08,10.0,NNW,17.3,23.0,0.36,Thunderstorm,Overcast,330,2012-11-27 08:46:00
2:47 AM,64.9,63.0,93,30.08,10.0,NNW,17.3,23.0,0.36,Thunderstorm,Overcast,330,2012-11-27 08:47:00
3:14 AM,64.4,60.8,88,30.10,10.0,NW,15.0,23.0,N/A,,Overcast,320,2012-11-27 09:14:00
3:52 AM,63.0,59.0,87,30.12,10.0,NNW,12.7,-,N/A,,Overcast,330,2012-11-27 09:52:00
4:52 AM,62.1,57.9,86,30.14,10.0,North,6.9,-,N/A,,Scattered Clouds,350,2012-11-27 10:52:00
5:52 AM,61.0,57.0,87,30.17,10.0,NNW,12.7,-,N/A,,Overcast,340,2012-11-27 11:52:00
6:27 AM,60.8,55.4,82,30.19,10.0,NNW,17.3,-,0.00,Rain,Light Rain,330,2012-11-27 12:27:00
6:38 AM,60.8,55.4,82,30.21,10.0,NNW,13.8,-,0.00,,Overcast,330,2012-11-27 12:38:00
6:52 AM,59.0,55.9,90,30.21,10.0,NNW,15.0,21.9,0.00,,Overcast,330,2012-11-27 12:52:00
7:52 AM,57.9,54.0,87,30.22,10.0,NNW,21.9,-,0.01,,Overcast,340,2012-11-27 13:52:00
8:49 AM,57.2,53.6,88,30.24,10.0,NNW,21.9,31.1,0.00,Rain,Light Rain,330,2012-11-27 14:49:00
8:52 AM,57.0,54.0,89,30.25,10.0,NNW,18.4,31.1,0.00,Rain,Light Rain,340,2012-11-27 14:52:00
9:52 AM,57.0,52.0,83,30.28,10.0,NNW,23.0,27.6,0.00,,Overcast,340,2012-11-27 15:52:00
10:33 AM,57.2,53.6,88,30.28,10.0,North,24.2,31.1,N/A,,Overcast,350,2012-11-27 16:33:00
10:52 AM,57.0,53.1,87,30.28,10.0,NNW,20.7,29.9,N/A,,Overcast,340,2012-11-27 16:52:00
11:52 AM,57.9,54.0,87,30.26,10.0,NNW,23.0,28.8,N/A,,Overcast,340,2012-11-27 17:52:00
12:52 PM,57.9,55.0,90,30.25,10.0,NNW,19.6,-,N/A,,Overcast,340,2012-11-27 18:52:00
1:52 PM,59.0,55.0,87,30.24,10.0,North,16.1,-,N/A,,Overcast,350,2012-11-27 19:52:00
2:52 PM,60.1,55.0,83,30.24,10.0,North,16.1,-,N/A,,Overcast,360,2012-11-27 20:52:00
3:52 PM,62.1,55.0,78,30.25,10.0,NNW,15.0,-,N/A,,Overcast,340,2012-11-27 21:52:00
4:52 PM,61.0,54.0,78,30.27,10.0,North,11.5,-,N/A,,Overcast,360,2012-11-27 22:52:00
5:23 PM,60.8,53.6,77,30.27,10.0,North,12.7,-,N/A,,Scattered Clouds,360,2012-11-27 23:23:00
5:34 PM,60.8,53.6,77,30.27,10.0,North,11.5,-,N/A,,Mostly Cloudy,350,2012-11-27 23:34:00
5:52 PM,61.0,53.1,75,30.28,10.0,North,12.7,-,N/A,,Overcast,360,2012-11-27 23:52:00
6:52 PM,61.0,54.0,78,30.30,10.0,North,12.7,-,N/A,,Overcast,350,2012-11-28 00:52:00
7:48 PM,59.0,51.8,77,30.32,10.0,North,12.7,-,N/A,,Scattered Clouds,360,2012-11-28 01:48:00
7:52 PM,59.0,52.0,78,30.32,10.0,North,13.8,-,N/A,,Partly Cloudy,350,2012-11-28 01:52:00
8:52 PM,57.0,52.0,83,30.33,10.0,North,13.8,-,N/A,,Clear,350,2012-11-28 02:52:00
9:52 PM,57.0,51.1,81,30.34,10.0,NNE,9.2,-,N/A,,Partly Cloudy,20,2012-11-28 03:52:00
10:52 PM,55.9,52.0,87,30.34,10.0,NNE,9.2,-,N/A,,Clear,30,2012-11-28 04:52:00
11:52 PM,55.0,48.9,80,30.34,10.0,NNE,10.4,-,N/A,,Clear,30,2012-11-28 05:52:00